Tracking 19794 objects as of 23-Jul-2019
HD Live streaming from Space Station
objects crossing your sky now

PEASSS

Track PEASSS now!
10-day predictions


NORAD ID: 42015
Int'l Code: 2017-008BV
Perigee: 492.8 km
Apogee: 503.6 km
Inclination: 97.4 °
Period: 94.4 minutes
Semi major axis: 6869 km
RCS: Unknown
Launch date: February 15, 2017
Source: Netherlands (NETH)
Launch site: SRIHARIKOTA (SRI)
aabbcc
Your satellite tracking list
Your tracking list is empty




NASA's NSSDC Master Catalog

Two Line Element Set (TLE):
1 42015U 17008BV  19203.17790826  .00000570  00000-0  25764-4 0  9993
2 42015  97.4000 269.3357 0007827  60.4855 299.7163 15.24905991134854
Source of the keplerian elements: AFSPC